STARLINK-31592, 59467

Orbit data source: Space-Track

STARLINK-31592, 59467 is a payload satellite owned by SpaceX/Seattle (US) in LEO that was launched on Wed, 10 Apr 2024 UTC via an FALCON 9 launch vehicle from the Air Force Eastern Test Range (AFETR). Payload-class satellites include a variety of spacecraft equipped with specific instruments for various scientific and technological missions. These include communications satellites like Starlink; space stations such as the ISS; scientific satellites like the Hubble; Earth observation satellites from companies like Planet Labs, Umbra, and HawkEye 360; GPS; miniature CubeSats for education and research; and military/defense satellites.

Loading next visibility...
Identifier
59467, 2024-068N
Orbit
LEO
Country
Flag of USUS
Related business
Manufacturer
SpaceX/Seattle
Mission
Operational Commercial Communications
Bus & Motor
STARLINK V2M, Unknown motor
Mass
730 kg wet, ~700 kg dry
Launch date (UTC)
2024-04-10 (2 years ago)
Launch vehicle
FALCON 9
Launch site
Air Force Eastern Test Range (AFETR)
Object type
Payload
Rocket body
Debris
Shape & HBR
Box + 2 Pan, 17.7 m
Radar Cross Section
33.884 m², Large (>1 m²)

Expand to show TLE details & history
Last TLE update: 2 days ago

TLE from 2 days ago
0 STARLINK-31592
1 59467U 24068N   26171.37235289 -.00000159  00000-0  37528-5 0  9993
2 59467  42.9996 174.8844 0001034 272.9047  87.1686 15.27577641124229
Epoch: 2026-06-20T08:56Z
TLE epoch observation values (Epoch: 2026-06-20T08:56:11.289Z)
Latitude
-0.00005°
Longitude
132.24939°
Altitude
482.797 km
Speed
7.626 km/s
True Right ascension
11h 39m 32s
True Declination
0° 00' 00"
Sunlit
Object was in daylight at epoch
Visualization orbit readout
Latitude
Unknown
Longitude
Unknown
Altitude
Unknown
Speed
Unknown
Apparent Right ascension
Unknown
Apparent Declination
Unknown
Sunlit
N/A
Visualization observer readout
Local Sidereal Time
21:28:16
Azimuth
Unknown
Elevation
Unknown
Doppler factor
Unknown
Orbital elements
Apogee altitude
485.711 km
Perigee altitude
484.292 km
Semi-major axis
6,863.138 km
Eccentricity
0.0001
Inclination
42.9996°
RAAN
174.8844°
Arg. of periapsis
272.9047°
True anomaly
87.18043°
Mean anomaly
87.1686°
Eccentric anomaly
87.17452°
Mean motion
3.81732 °/min
Orbital period
94.31 mins
BSTAR
0.0000037528
Loading maneuver chart data...
Computing Atmospheric mass density...
Loading historical data...
Loading historical data...
Loading historical data...
Loading historical data...
Loading historical data...
Loading historical data...
Loading historical data...

Documentation

Showing up to 5 results
|